Aérodrome :
LOGIN :

S'inscrire | Disclaimer

   EN    FR    IT 

 










Légende :    VFR   VFR Marginal   IFR   IFR Intensif   IFR Très Intensif
Visi : 
Plafond : 
>= 8 km
>= 3000ft
5 à 8 km
1000 à 3000 ft
1500m à 5 km
500 à 1000 ft
800 à 1500m
200 à 500 ft
< 800m
< 200 ft
Symboles :   Orages  Brouillard  Fortes neiges  Fortes précipitations  Vent > 20 kt
SIGMETs :   Divers  Orages  Givrage  Turbulence  Onde Orograph.  Cendres Volcan.






- Altitude de l'aérodrome : 1202 ft
- Code IATA : IGS


ETSI - Ingolstadt

DERNIER METAR :
  • 250520Z 28008KT 9999 FEW015 BKN020 BKN060 12/09 Q1030 WHT BLU TEMPO WHT

METARs EXPIRÉS :
  • 250420Z AUTO 27007KT 9000 // ////// 12/08 Q1030 ///
  • 250320Z AUTO 27007KT 9000 // ////// 12/08 Q1030 ///

TAF TAF ETSI
Valide du 25 à 05h jusqu'au 25 à 14h UTC


250419Z 2505/2514 28010KT 9999 NSW SCT030 BKN060
TEMPO 2505/2514 31015G25KT 8000 -SHRA SCT015 BKN022



MET'MAP, la Météo Aéronautique d'un coup d'oeil ! - Copyright ORBIFLY Décembre 2007 - Disclaimer

ORBIFLY MET'MAP TEAM :

Programmation & Développement : Alexandra Zaïnal
Sur une idée originale de : Baudouin d'Aumeries
Assistance à la programmation : Marc-Olivier Méhu
Soutien technique & logistique : Manuel Goepfert

Contact : metmap@orbifly.com




SOURCES & CREDITS :

   NOAA